Regional Weather Roundup
Issued by NWS

Home | Current Version | Previous Version | Graphics & Text | Print | Product List | Glossary On
Versions: 1 2 3 4 5 6 7 8 9 10 11 12 13 14 15 16 17 18 19 20 21 22 23 24 25 26 27 28 29 30 31 32 33 34 35 36 37 38 39 40 41 42 43 44 45 46 47 48 49 50
000
ASUS45 KCYS 172310
RWRWY

WYOMING REGIONAL WEATHER ROUNDUP
NATIONAL WEATHER SERVICE CHEYENNE WY
400 PM MST SUN DEC 17 2017

NOTE:  "FAIR" INDICATES FEW OR NO CLOUDS BELOW 12,000 FEET
WITH NO SIGNIFICANT WEATHER AND/OR OBSTRUCTIONS TO VISIBILITY.

WYZ001-180000-
YELLOWSTONE NATIONAL PARK

CITY           SKY/WX    TMP DP  RH WIND       PRES   REMARKS
LK YELLOWSTONE   N/A     14  10  84 VRB3      30.06R
W YELLOWSTONE  NOT AVBL

$$
WYZ002>013-054>058-071-098>099-180000-
NORTHERN WYOMING

CITY           SKY/WX    TMP DP  RH WIND       PRES   REMARKS
JACKSON        CLOUDY    22  16  78 N7        30.08R WCI  13
CODY           FAIR      31  18  58 VRB7      29.86R WCI  24
GREYBULL       FAIR      25  23  92 S7        29.92R WCI  17
WORLAND        FAIR      20  19  96 S3        29.91R
SHERIDAN         N/A     17  15  92 NW3       29.86R
BUFFALO        FAIR      29  18  63 S3        29.82R
GILLETTE       FAIR      25  19  78 W3        29.82R
HULETT         FAIR      32  23  69 SW9       29.82S WCI  24
NEWCASTLE      FAIR      30  23  74 N6        29.85S WCI  24

$$
WYZ014>020-022>026-101>103-180000-
CENTRAL WYOMING

CITY           SKY/WX    TMP DP  RH WIND       PRES   REMARKS
BIG PINEY      CLOUDY    27  12  53 N14       30.00R WCI  16
PINEDALE       MOCLDY    23  12  63 NW22      29.99F WCI   8
DUBOIS         CLOUDY    25  16  68 W26G38    29.92F WCI   9
LANDER         FAIR      31  21  66 CALM      29.87R
RIVERTON       FAIR      28  18  66 W21       29.88R WCI  15
CASPER         FAIR      29  16  58 SW13      29.89R WCI  19
DOUGLAS        FAIR      36  15  42 NW15      29.86R WCI  27

$$
WYZ021-027>030-104>119-180000-
SOUTHERN WYOMING

CITY           SKY/WX    TMP DP  RH WIND       PRES   REMARKS
EVANSTON       MOCLDY    27  16  63 W12       30.10R WCI  17
FORT BRIDGER   FAIR      29  16  57 W18G24    30.09R WCI  17
ROCK SPRINGS   FAIR      27  14  58 W20G32    30.01R WCI  13
DIXON          FAIR      33  17  53 SW8       30.05R WCI  26
RAWLINS        FAIR      29  12  49 W17G29    29.97R WCI  17
SARATOGA       FAIR      30  18  59 W12G23    29.98S WCI  21
LARAMIE        FAIR      29  16  58 SW16      29.86R WCI  17
CHEYENNE       FAIR      38  18  44 W22G35    29.85R WCI  27
TORRINGTON     FAIR      44  16  32 W15       29.83R
PINE BLUFFS    FAIR      36  27  69 MISG      29.87S

$$



USA.gov is the U.S. government's official web portal to all federal, state and local government web resources and services.